Regional Weather Roundup
Issued by NWS

Home | Current Version | Previous Version | Text Only | Print | Product List | Glossary On
Versions: 1 2 3 4 5 6 7 8 9 10 11 12 13 14 15 16 17 18 19 20 21 22 23 24 25 26 27 28 29 30 31 32 33 34 35 36 37 38 39 40 41 42 43 44 45 46 47 48 49 50
000
ASUS43 KLMK 272210
RWRKY
KENTUCKY REGIONAL WEATHER ROUNDUP
NATIONAL WEATHER SERVICE LOUISVILLE KY
600 PM EDT WED AUG 27 2014

NOTE "FAIR" INDICATES FEW OR NO CLOUDS BELOW 12,000 FEET
WITH NO SIGNIFICANT WEATHER AND/OR OBSTRUCTIONS TO VISIBILITY.

KYZ001>023-026-027-061>063-070>075-272300-
WESTERN AND SOUTH CENTRAL KENTUCKY

CITY           SKY/WX    TMP DP  RH WIND       PRES   REMARKS
PADUCAH        MOSUNNY   96  72  45 N5        30.02F HX 104
HENDERSON      MOSUNNY   88  72  58 E9        30.02F HX  94
OWENSBORO      MOSUNNY   91  73  55 NE7       30.02F HX  99
HOPKINSVILLE   MOSUNNY   89  73  57 SE6       30.03F HX  97
BOWLING GREEN  SUNNY     88  71  57 E7        30.04F HX  94
GLASGOW        SUNNY     89  69  51 CALM      30.04F HX  93
$$

KYZ024-025-028>034-038-045-046-053-272300-
NORTH CENTRAL KENTUCKY

CITY           SKY/WX    TMP DP  RH WIND       PRES   REMARKS
LOUISVILLE/SDF TSTM      76  71  85 S12       30.04R
LOUISVILLE/LOU TSTM      74  70  87 SW14      30.04F FOG
FORT KNOX      MOSUNNY   84  72  65 SE10      30.02F THUNDER
$$

KYZ035>037-039>044-047>052-055>060-089>105-272300-
NORTHEAST KENTUCKY

CITY           SKY/WX    TMP DP  RH WIND       PRES   REMARKS
LEXINGTON      SUNNY     89  69  51 SW5       30.04F HX  93
COVINGTON      MOSUNNY   87  70  56 NW8       30.02F HX  92
FRANKFORT      MOSUNNY   86  72  62 SE6       30.03S THUNDER HX  92
$$

KYZ054-064>069-076>088-106>120-272300-
SOUTHEAST KENTUCKY

CITY           SKY/WX    TMP DP  RH WIND       PRES   REMARKS
JACKSON        SUNNY     85  68  56 NW3       30.08F
LONDON         MOSUNNY   87  67  51 NE5       30.08F HX  90
SOMERSET       SUNNY     86  64  48 CALM      30.07F
MIDDLESBORO    SUNNY     87  65  47 N5        30.07S
MONTICELLO     CLEAR     89  71  55 CALM      30.08F HX  95
$$




USA.gov is the U.S. government's official web portal to all federal, state and local government web resources and services.